Regional Weather Roundup
Issued by NWS Upton, NY

Current Version | Previous Version | Graphics & Text | Print | Product List | Glossary Off
Versions: 1 2 3 4 5 6 7 8 9 10 11 12 13 14 15 16 17 18 19 20 21 22 23 24 25 26 27 28 29 30 31 32 33 34 35 36 37 38 39 40 41 42 43 44 45 46 47 48 49

000
ASUS41 KOKX 251809
RWROKX

REGIONAL WEATHER ROUNDUP
NATIONAL WEATHER SERVICE NEW YORK NY
200 PM EDT TUE APR 25 2017

NOTE: "FAIR" INDICATES FEW OR NO CLOUDS BELOW 12,000 FEET WITH NO
SIGNIFICANT WEATHER AND/OR OBSTRUCTIONS TO VISIBILITY.

NYZ071-072-176-178-NJZ106-104-251900-
NEW YORK CITY METRO AREA

CITY           SKY/WX    TMP DP  RH WIND       PRES   REMARKS
Central Park   CLOUDY    54  51  90 NE12G23   30.04F
Wall St Helipt CLOUDY    55  51  86 NE23G29   30.01F
Bronx Bot Gard   N/A     52  50  93 NE5       30.03F
LaGuardia APRT CLOUDY    55  51  86 NE23G32   30.02F
Kennedy INTL   LGT RAIN  57  54  89 NE16      30.01F
Breezy Point     N/A     55 N/A N/A NE15G21     N/A
Newark/Liberty CLOUDY    56  52  86 NE18G25   30.01F
Teterboro      DRIZZLE   57  52  83 E16G26    30.01F
$$

NYZ177-179-078>081-251900-
LONG ISLAND NEW YORK

CITY           SKY/WX    TMP DP  RH WIND       PRES   REMARKS
Jones Beach      N/A     54 N/A N/A NE23G30     N/A
Matinecock PT    N/A     52 N/A N/A E26         N/A
Farmingdale    LGT RAIN  55  53  93 NE14G23   30.03F FOG
MacArthur/ISP  LGT RAIN  55  54  96 NE14G25   30.04F FOG
Shirley        LGT RAIN  53  52  96 VRB6G21   30.06F FOG
Mt Sinai Harb    N/A    N/A N/A N/A E10         N/A
Westhampton    LGT RAIN  53  50  89 NE15G22   30.08F
East Hampton   LGT RAIN  50  49  95 NE15G23   30.09S
Montauk          N/A     50  49  96 NE16G26   30.09F
$$

NYZ052-065-067-251900-
HUDSON VALLEY

CITY           SKY/WX    TMP DP  RH WIND       PRES   REMARKS
White Plains   LGT RAIN  55  52  89 E10G22    30.04F
Larchmont Harb   N/A     48 N/A N/A NE21        N/A
Croton O-T Hud   N/A     57 N/A N/A NE5G12      N/A
Newburgh       CLOUDY    54  52  94 E10       30.09F
Montgomery     CLOUDY    53  49  86 NE14      30.07F
Poughkeepsie   CLOUDY    54  51  90 N8        30.08F
Albany         CLOUDY    52  47  83 N6        30.17F
$$

NJZ001-105-106-008-010-013-015-019>022-104-251900-
NEW JERSEY

CITY           SKY/WX    TMP DP  RH WIND       PRES   REMARKS
Newark/Liberty CLOUDY    56  52  86 NE18G25   30.01F
Teterboro      DRIZZLE   57  52  83 E16G26    30.01F
Caldwell       CLOUDY    56  53  90 E16G24    30.03F
Somerville     CLOUDY    57  53  86 NE15G25   29.97F
Linden           N/A     56  51  83 E16G22    30.01F
Sussex         CLOUDY    52  50  93 NE9       30.06S FOG
Andover          N/A     53  51  93 VRB6      30.03F
Trenton        LGT RAIN  56  55  97 E20G29    29.94F FOG
Millville      LGT RAIN  58  58 100 NE18      29.83F FOG
Atlantic City  RAIN      56  54  93 NE23G31   29.85F VSB 1
Wrightstown    LGT RAIN  54  53  96 NE16G28   29.91F FOG
Toms River     LGT RAIN  52  51  97 NE17G25   29.94F
Belmar         LGT RAIN  50  49  96 NE22G30   29.97F FOG
$$

PAZ047>061-062-071-251900-
EASTERN PENNSYLVANIA

CITY           SKY/WX    TMP DP  RH WIND       PRES   REMARKS
Philadelphia   LGT RAIN  57  54  89 NE17G28   29.90F FOG
Allentown      CLOUDY    58  51  78 E16G25    29.96F
Scranton       CLOUDY    56  49  77 NE12      30.01F
$$

CTZ002-004>006-009-010-012-RIZ004-006-007-MAZ004-011-015-251900-
SOUTHERN NEW ENGLAND
 IN CT

CITY           SKY/WX    TMP DP  RH WIND       PRES   REMARKS
Bradley INTL   CLOUDY    55  51  86 N14       30.14F
Hartford       CLOUDY    57  50  77 NE9       30.12F
Danbury        LGT RAIN  53  52  96 NE10      30.09F
Wtrbury/Oxford LGT RAIN  54  46  76 E13G23    30.10F FOG
Bridgeport     CLOUDY    58  53  84 NE13      30.07F
Meriden        LGT RAIN  58  51  78 VRB5      30.11F
New Haven      CLOUDY    57  53  86 NE8       30.08F FOG
Chester        LGT RAIN  54  52  94 NE9G17    30.10S
Groton         LGT RAIN  55  51  86 NE22G29   30.11R
Wilimantic     CLOUDY    56  49  77 NE14G24   30.14F

 IN RI

CITY           SKY/WX    TMP DP  RH WIND       PRES   REMARKS
Providence     LGT RAIN  50  49  96 NE15      30.19F
Block Island   LGT RAIN  49  49 100 NE15G24   30.12F FOG
Westerly       HVY RAIN  53  51  93 NE13G21   30.13R FOG
 IN MA

CITY           SKY/WX    TMP DP  RH WIND       PRES   REMARKS
Boston         LGT RAIN  46  44  93 NE23G30   30.25F FOG
Worcester      LGT RAIN  46  42  86 NE15G23   30.19F FOG
Westfield      CLOUDY    52  49  89 N13       30.17F
Provincetown   LGT RAIN  46  45  96 E18       30.21F FOG
Nantucket      LGT RAIN  51  49  92 E20G32    30.14F FOG
$$

ANZ330-335-338-340-345-350-353-355-251900-
COASTAL MARINE OBSERVATIONS


STATION/POSITION TIME  SKY/WX   TEMP    WIND        PRES    VSBY  WAVE
                                AIR SEA DIR/SP/G                  HT/PER
                 (UTC)          (F)     (DEG/KT/KT) (MB)    (MI)  (FT/S)
NY HARB ENTRANCE 1650            49 49   60/ 27/ 35 1015.7          6/ 7
20 S FIRE ISLAND 1750            48 47   60/ 21/ 27 1014.5          7/ 6
GREAT SOUTH BAY  1715            55 55   60/ 17/ 25   N/A
23 SSW MONTAUK P 1650            47 46              1018.4          7/ 6
15 E BARNEGAT LI 1730               50                N/A           8/10
HUDSON CANYON    1650            52 47   80/ 16/ 17 1014.0          7/ 7
KINGS POINT      1748            54 47   90/ 12/ 19 1016.6
EXECUTION ROCKS  NOT AVBL
CENTRAL LI SOUND 1730            49      70/ 10/ 12   N/A           2/ 4
EASTERN LI SOUND NOT AVBL
ROBBINS REEF     1748            55      50/ 22/ 26 1015.9
$$


>>>>>>>>>>>>>>>>>>>>>>>>>>>> KEY <<<<<<<<<<<<<<<<<<<<<<<<<<<
>                                                          <
>     SKY/WX - Sky Condition/Present Weather               <
>     TMP    - Temperature in Fahrenheit                   <
>     DP     - Dew Point in Fahrenheit                     <
>     RH     - Relative Humidity in Percent                <
>     WIND   - Direction (from) and Speed in MPH           <
>     PRES   - Mean Sea Level Pressure (inches of Hg)      <
>     WCI    - Wind Chill Index                            <
>     VSB    - VISIBILITY IN MILES                         <
>     HX     - HEAT INDEX                                  <
>     TC     - TEMPERATURE IN CELSIUS                      <
>     VRB    - VARIABLE WIND DIRECTION                     <
>                                                          <
>>>>>>>>>>>>>>>>>>>>>>>>>>>> KEY <<<<<<<<<<<<<<<<<<<<<<<<<<<



USA.gov is the U.S. government's official web portal to all federal, state and local government web resources and services.